AirNav   Air Wisconsin pilot careers
 
 1062 users online  

1D8 Redfield Municipal Airport
Redfield, South Dakota, USA

GOING TO REDFIELD?


FAA INFORMATION EFFECTIVE 04 JANUARY 2018

Location

FAA Identifier: 1D8
Lat/Long: 44-51-44.9140N / 098-31-46.3430W
44-51.748567N / 098-31.772383W
44.8624761 / -98.5295397
(estimated)
Elevation: 1307 ft. / 398.4 m (surveyed)
Variation: 07E (1985)
From city: 1 mile SW of REDFIELD, SD
Time zone: UTC -6 (UTC -5 during Daylight Saving Time)
Zip code: 57469

Airport Operations

Airport use: Open to the public
Activation date: 11/1945
Control tower: no
ARTCC: MINNEAPOLIS CENTER
FSS: HURON FLIGHT SERVICE STATION
NOTAMs facility: HON (NOTAM-D service available)
Attendance: UNATNDD
Wind indicator: lighted
Segmented circle: yes
Beacon: white-green (lighted land airport)
Operates sunset to sunrise.

Airport Communications

CTAF/UNICOM: 122.8
  • UNICOM UNMONITORED.

Nearby radio navigation aids

VOR radial/distance  VOR name  Freq  Var
HONr330/27.0HURON VORTAC117.6010E
ABRr185/34.0ABERDEEN VOR/DME113.0007E

Airport Services

Fuel available: 100LL
FUEL AVBL 24 HRS WITH CREDIT CARD.
Parking: tiedowns
Airframe service: MINOR
Powerplant service: MINOR
Bottled oxygen: NONE
Bulk oxygen: NONE

Runway Information

Runway 13/31

Dimensions: 3300 x 60 ft. / 1006 x 18 m
Surface: asphalt, in fair condition
Weight bearing capacity: 
Single wheel: 13.0
Runway edge lights: low intensity
RUNWAY 13  RUNWAY 31
Latitude: 44-51.798167N44-51.373833N
Longitude: 098-31.991833W098-31.515333W
Elevation: 1303.0 ft.1303.0 ft.
Gradient: 0.1%0.1%
Traffic pattern: leftleft
Markings: basic, in fair conditionbasic, in fair condition
Runway end identifier lights: nono
Obstructions: 18 ft. tree, 600 ft. from runway, 22:1 slope to clear40 ft. trees, 1860 ft. from runway, 41:1 slope to clear

Runway 1/19

Dimensions: 2500 x 250 ft. / 762 x 76 m
Surface: turf, in good condition
RUNWAY 1  RUNWAY 19
Gradient: 0.2%0.2%
Traffic pattern: leftleft
Runway end identifier lights: nono
Obstructions: none36 ft. tree, 731 ft. from runway, 35 ft. right of centerline, 20:1 slope to clear

Airport Ownership and Management from official FAA records

Ownership: Publicly-owned
Owner: CITY OF REDFIELD
626 N. MAIN STREET
REDFIELD, SD 57469
Phone 605-472-4550
Manager: ADAM HANSEN
626 N. MAIN STREET, 626 N. MAIN ST
REDFIELD, SD 57469
Phone 605-472-4550

Airport Operational Statistics

Aircraft based on the field: 19
Single engine airplanes: 17
Multi engine airplanes: 1
Ultralights: 1
    
Aircraft operations: avg 77/week *
88% local general aviation
12% transient general aviation
* for 12-month period ending 02 February 2016

Additional Remarks

ULTRALIGHT ACTIVITY ON AND INVOF ARPT.
MIGRATORY BIRDS AND WILDILFE ON AND INVOF ARPT.

Instrument Procedures

There are no published instrument procedures at 1D8.

Some nearby airports with instrument procedures:

KMKA - Miller Municipal Airport (27 nm SW)
KHON - Huron Regional Airport (31 nm SE)
8D7 - Clark County Airport (35 nm E)
KABR - Aberdeen Regional Airport (35 nm N)
9D0 - Highmore Municipal Airport (44 nm SW)
 
Loc | Ops | Rwys | IFR | FBO | Links
Com | Nav | Svcs | Stats | Notes

Mandan Aero Center
 
Area around 1D8 (Redfield Municipal Airport)
 
Road maps at: MapQuest Bing Google
 
Aerial photo
WARNING: Photo may not be current or correct
Aerial photo of 1D8 (Redfield Municipal Airport)
Photo by Steve Hamilton
Photo taken 28-Aug-2011
looking north.

Do you have a better or more recent aerial photo of Redfield Municipal Airport that you would like to share? If so, please send us your photo.

 
Sectional chart

 
Airport distance calculator
Flying to Redfield Municipal Airport? Find the distance to fly.

From to 1D8

Sunrise and sunset
Times for 21-Jan-2018
 Local
(UTC-6)
 Zulu
(UTC)
Morning civil twilight07:3313:33
Sunrise08:0514:05
Sunset17:2623:26
Evening civil twilight17:5823:58

Current date and time
Zulu (UTC)  21-Jan-2018 19:11:22
Local (UTC-6)  21-Jan-2018 13:11:22
 
METAR
3FU 
27nm W 
SuperAWOS
211824Z AUTO M01/M06 A2998
KMKA 
27nm SW 
SuperAWOS
211835Z AUTO 32005KT 1 1/2SM BR M01/M03 A3003
KHON 
31nm SE 
211902Z AUTO 35010KT 3/4SM -SN BR SCT004 OVC013 M01/M01 A3001 RMK AO2 P0000 T10061006 $
8D7 
35nm E 
SuperAWOS
211835Z AUTO 00000KT 02/M02 A2997
KABR 
36nm N 
211853Z AUTO 36009KT 10SM SCT120 M01/M04 A3004 RMK AO2 SLP189 T10111039
9D0 
44nm SW 
SuperAWOS
211355Z AUTO 00000KT 10SM M01/M03 A2994
TAF
KHON 
31nm SE 
211723Z 2117/2218 36008KT 1 1/2SM -SN OVC025 FM212000 01010G18KT 4SM -SN OVC020 FM212200 01011G20KT P6SM OVC040 FM220300 01012KT 4SM -SN OVC045 FM220500 36012G21KT P6SM -SN OVC035 FM220900 35015G23KT P6SM OVC015
KABR 
36nm N 
211730Z 2118/2218 02008KT P6SM OVC110 FM220200 02010KT P6SM OVC025 FM221100 01011KT 6SM BR BKN008
NOTAMs
Click for the latest NOTAMs
NOTAMs are issued by the DoD/FAA and will open in a separate window not controlled by AirNav.

 

 
 

FBO, Fuel Providers, and Aircraft Ground Support

  
 Business Name 
 
 Contact 
 
 Services / Description 
 
Fuel Prices
 
Comments
  
City of Redfield 605-472-4550
no information available

If you are affiliated with City of Redfield and would like to show here your services, contact info, web link, logo, and more, click here
100LL
SS $5.45 
 Updated 15-Jun-2015
 
   write
SS=Self service
Update Fuel Prices
 

Would you like to see your business listed on this page?

 If your business provides an interesting product or service to pilots, flight crews, aircraft, or users of the Redfield Municipal Airport, you should consider listing it here.  To start the listing process, click on the button below
 
Add a business
 

Other Pages about Redfield Municipal Airport

www.redfield-sd.com/...
 
Update a link
 
Copyright © AirNav, LLC. All rights reserved. Privacy Policy  Contact